Location: Cazavet
(43.0017°N, 1.0431°E)
Time: 21:54:29
(UTC+00:00)

Okean 3 - Pass Details

Date: 18 January 2026
Orbit: 541 x 564 km, 82.5° (Epoch: 10 February)

Event Time Altitude Azimuth Distance (km) Brightness Sun altitude
Exits shadow 05:26:49 59° 324° (NW) 633 3.3 -20.9°
Maximum altitude 05:27:27 74° 264° (W) 569 3.1 -20.8°
Drops below altitude 10° 05:31:23 10° 179° (S) 1,799 6.1 -20.0°
Sets 05:33:32 0° 178° (S) 2,686 7.0 -19.7°
